Location: Newark
(25.3833°N, 97.4000°E)
Time: 12:56:16
(UTC+00:00)

ITUPSAT 1 - Visible Passes

Search period start: 18 February 2020 00:00
Search period end: 28 February 2020 00:00
Orbit: 701 x 714 km, 98.6° (Epoch: 18 February)

Date Brightness Start Highest point End Pass type
(mag) Time Alt. Az. Time Alt. Az. Time Alt. Az.
18 Feb ? 22:21:21 10° SSE 22:26:01 57° ENE 22:30:43 10° N visible
19 Feb ? 12:08:43 10° NNW 12:12:02 19° WNW 12:15:22 10° WSW visible
19 Feb ? 21:30:29 10° E 21:32:52 14° ENE 21:35:15 10° NE visible
19 Feb ? 23:05:44 10° S 23:10:15 41° W 23:14:45 10° NNW visible
20 Feb ? 22:12:17 10° SE 22:16:48 43° ENE 22:21:19 10° N visible
21 Feb ? 11:59:01 10° NNW 12:02:51 25° WNW 12:06:40 10° SW visible
21 Feb ? 21:22:54 10° ENE 21:23:43 10° ENE 21:24:31 10° ENE visible
21 Feb ? 22:56:18 10° S 23:00:58 54° W 23:05:39 10° NNW visible
22 Feb ? 22:03:19 10° SE 22:07:35 34° ENE 22:11:52 10° N visible
23 Feb ? 11:49:28 10° N 11:53:39 32° WNW 11:57:49 10° SW visible
23 Feb ? 22:46:56 10° S 22:51:43 72° WSW 22:56:29 10° NNW visible
24 Feb ? 21:54:26 10° SE 21:58:23 26° ENE 22:02:19 10° NNE visible
24 Feb ? 23:32:26 10° SSW 23:36:02 21° W 23:39:38 10° NW visible
25 Feb ? 22:37:40 10° SSE 22:42:28 87° ENE 22:47:14 10° NNW visible
26 Feb ? 12:26:15 10° NW 12:28:21 13° WNW 12:30:26 10° W visible
26 Feb ? 21:45:42 10° ESE 21:49:12 20° ENE 21:52:40 10° NNE visible
26 Feb ? 23:22:41 10° SSW 23:26:44 27° W 23:30:47 10° NW visible
27 Feb ? 22:28:28 10° SSE 22:33:12 67° ENE 22:37:56 10° N visible
